JBU2080 KFLL-KDCA

Flight info

Callsign JBU2080
Flight time N/A
Altitude 37000
Route FEALX2 ETECK GRUBR Y299 SEELO GARIC RANAY TANJA WAVES CAPSS4
Aircraft A320/M-SDE3FGHIRWY/LB1

Departure

Time 2026-05-03 22:38
Airport Fort Lauderdale Hollywood International Airport (KFLL)

Arrival

Time N/A
Airport Ronald Reagan Washington National Airport (KDCA)
Time Latitude Longitude Altitude Speed Heading
2026-05-03 20:42 26.06881 -80.14297 16 ft 0 kts
2026-05-03 20:44 26.06881 -80.14254 17 ft 0 kts 360°
2026-05-03 21:20 26.06876 -80.14254 16 ft 3 kts 359°
2026-05-03 21:21 26.06849 -80.14252 18 ft 4 kts 346°
2026-05-03 21:21 26.06826 -80.14241 17 ft 4 kts 312°
2026-05-03 21:21 26.06818 -80.14225 17 ft 0 kts 270°
2026-05-03 21:31 26.06817 -80.14231 16 ft 2 kts 261°
2026-05-03 21:31 26.06806 -80.14253 16 ft 5 kts 234°
2026-05-03 21:31 26.06781 -80.14286 15 ft 7 kts 232°
2026-05-03 21:32 26.06770 -80.14342 15 ft 9 kts 270°
2026-05-03 21:32 26.06771 -80.14416 16 ft 11 kts 271°
2026-05-03 21:32 26.06770 -80.14507 17 ft 13 kts 263°
2026-05-03 21:32 26.06766 -80.14538 15 ft 0 kts 262°
2026-05-03 21:33 26.06766 -80.14541 15 ft 1 kts 263°
2026-05-03 21:33 26.06765 -80.14563 15 ft 4 kts 268°
2026-05-03 21:33 26.06765 -80.14602 15 ft 6 kts 270°
2026-05-03 21:33 26.06765 -80.14657 15 ft 8 kts 271°
2026-05-03 21:34 26.06766 -80.14719 15 ft 9 kts 271°
2026-05-03 21:34 26.06766 -80.14794 15 ft 11 kts 270°
2026-05-03 21:34 26.06767 -80.14886 15 ft 13 kts 270°
2026-05-03 21:34 26.06768 -80.14993 16 ft 15 kts 270°
2026-05-03 21:35 26.06769 -80.15090 16 ft 9 kts 278°
2026-05-03 21:35 26.06823 -80.15130 16 ft 11 kts 352°
2026-05-03 21:35 26.06907 -80.15130 16 ft 13 kts
2026-05-03 21:35 26.07007 -80.15129 17 ft 15 kts
2026-05-03 21:36 26.07095 -80.15128 16 ft 11 kts
2026-05-03 21:36 26.07179 -80.15127 16 ft 13 kts
2026-05-03 21:36 26.07214 -80.15127 16 ft 0 kts 360°
2026-05-03 21:37 26.07220 -80.15127 16 ft 2 kts 360°
2026-05-03 21:37 26.07243 -80.15127 16 ft 4 kts 359°
2026-05-03 21:37 26.07282 -80.15127 16 ft 7 kts
2026-05-03 21:37 26.07311 -80.15127 16 ft 1 kts
2026-05-03 21:38 26.07319 -80.15127 16 ft 1 kts
2026-05-03 21:38 26.07320 -80.15127 16 ft 0 kts
2026-05-03 21:46 26.07329 -80.15126 16 ft 2 kts
2026-05-03 21:47 26.07355 -80.15126 16 ft 5 kts
2026-05-03 21:47 26.07383 -80.15126 17 ft 0 kts
2026-05-03 21:49 26.07391 -80.15126 16 ft 2 kts
2026-05-03 21:49 26.07415 -80.15126 16 ft 5 kts
2026-05-03 21:49 26.07429 -80.15126 16 ft 0 kts 360°
2026-05-03 21:50 26.07432 -80.15126 16 ft 1 kts 360°
2026-05-03 21:51 26.07449 -80.15127 16 ft 4 kts 355°
2026-05-03 21:51 26.07478 -80.15142 16 ft 6 kts 319°
2026-05-03 21:51 26.07490 -80.15192 16 ft 8 kts 270°
2026-05-03 21:51 26.07490 -80.15262 16 ft 10 kts 270°
2026-05-03 21:52 26.07491 -80.15349 16 ft 12 kts 271°
2026-05-03 21:52 26.07491 -80.15453 16 ft 14 kts 270°
2026-05-03 21:52 26.07492 -80.15532 16 ft 16 kts 270°
2026-05-03 21:52 26.07493 -80.15664 16 ft 18 kts 270°
2026-05-03 21:53 26.07494 -80.15812 16 ft 20 kts 269°
2026-05-03 21:53 26.07493 -80.15928 16 ft 11 kts 270°
2026-05-03 21:53 26.07494 -80.16019 16 ft 13 kts 270°
2026-05-03 21:53 26.07495 -80.16114 16 ft 6 kts 270°
2026-05-03 21:54 26.07495 -80.16136 16 ft 0 kts 270°
2026-05-03 21:55 26.07495 -80.16137 16 ft 1 kts 270°
2026-05-03 21:55 26.07495 -80.16152 16 ft 3 kts 270°
2026-05-03 21:55 26.07495 -80.16184 16 ft 5 kts 270°
2026-05-03 21:56 26.07496 -80.16233 16 ft 8 kts 270°
2026-05-03 21:56 26.07496 -80.16279 16 ft 0 kts 270°
2026-05-03 22:07 26.07496 -80.16290 25 ft 2 kts 270°
2026-05-03 22:07 26.07496 -80.16317 13 ft 5 kts 270°
2026-05-03 22:07 26.07496 -80.16347 16 ft 0 kts 270°
2026-05-03 22:08 26.07496 -80.16349 16 ft 0 kts 270°
2026-05-03 22:10 26.07496 -80.16379 16 ft 4 kts 270°
2026-05-03 22:10 26.07496 -80.16420 16 ft 6 kts 271°
2026-05-03 22:10 26.07497 -80.16435 16 ft 0 kts 271°
2026-05-03 22:17 26.07497 -80.16438 16 ft 1 kts 271°
2026-05-03 22:17 26.07497 -80.16455 16 ft 3 kts 271°
2026-05-03 22:18 26.07497 -80.16484 16 ft 0 kts 270°
2026-05-03 22:19 26.07497 -80.16487 16 ft 0 kts 270°
2026-05-03 22:19 26.07497 -80.16493 16 ft 2 kts 270°
2026-05-03 22:19 26.07497 -80.16516 16 ft 4 kts 270°
2026-05-03 22:20 26.07497 -80.16547 16 ft 0 kts 270°
2026-05-03 22:22 26.07497 -80.16559 16 ft 3 kts 270°
2026-05-03 22:22 26.07497 -80.16588 16 ft 5 kts 271°
2026-05-03 22:23 26.07498 -80.16598 16 ft 0 kts 271°
2026-05-03 22:23 26.07498 -80.16599 16 ft 1 kts 271°
2026-05-03 22:24 26.07499 -80.16612 16 ft 3 kts 282°
2026-05-03 22:24 26.07516 -80.16636 16 ft 5 kts 322°
2026-05-03 22:24 26.07524 -80.16639 16 ft 0 kts 341°
2026-05-03 22:30 26.07531 -80.16641 16 ft 2 kts 346°
2026-05-03 22:30 26.07552 -80.16643 16 ft 4 kts 358°
2026-05-03 22:30 26.07557 -80.16643 16 ft 0 kts
2026-05-03 22:31 26.07558 -80.16643 16 ft 0 kts
2026-05-03 22:32 26.07569 -80.16643 16 ft 2 kts
2026-05-03 22:32 26.07591 -80.16643 17 ft 4 kts 360°
2026-05-03 22:32 26.07592 -80.16643 16 ft 0 kts 360°
2026-05-03 22:33 26.07593 -80.16643 16 ft 0 kts 360°
2026-05-03 22:36 26.07594 -80.16643 16 ft 1 kts 359°
2026-05-03 22:36 26.07604 -80.16643 17 ft 2 kts 360°
2026-05-03 22:36 26.07649 -80.16643 17 ft 11 kts
2026-05-03 22:37 26.07696 -80.16575 18 ft 10 kts 90°
2026-05-03 22:37 26.07695 -80.16361 21 ft 59 kts 90°
2026-05-03 22:37 26.07690 -80.15682 17 ft 113 kts 90°
2026-05-03 22:37 26.07684 -80.14672 21 ft 145 kts 90°
2026-05-03 22:38 26.07664 -80.13502 261 ft 149 kts 89°
2026-05-03 22:38 26.07604 -80.12402 851 ft 137 kts 90°
2026-05-03 22:38 26.07563 -80.11374 1256 ft 137 kts 84°
2026-05-03 22:38 26.07603 -80.10237 1429 ft 154 kts 84°
2026-05-03 22:39 26.07653 -80.09006 1569 ft 169 kts 86°
2026-05-03 22:39 26.07701 -80.07632 1688 ft 189 kts 86°
2026-05-03 22:39 26.07741 -80.06126 2014 ft 202 kts 87°
2026-05-03 22:39 26.07775 -80.04463 2229 ft 229 kts 88°
2026-05-03 22:40 26.07804 -80.02596 2627 ft 254 kts 89°
2026-05-03 22:40 26.08074 -80.00592 3188 ft 271 kts 67°
2026-05-03 22:40 26.09070 -79.98796 3990 ft 276 kts 52°
2026-05-03 22:40 26.10224 -79.97048 4825 ft 283 kts 52°
2026-05-03 22:41 26.11404 -79.95259 5615 ft 290 kts 52°
2026-05-03 22:41 26.12610 -79.93427 6433 ft 296 kts 52°
2026-05-03 22:41 26.13835 -79.91562 7211 ft 301 kts 52°
2026-05-03 22:41 26.15079 -79.89662 8014 ft 305 kts 52°
2026-05-03 22:42 26.16335 -79.87741 8825 ft 309 kts 52°
2026-05-03 22:42 26.17607 -79.85790 9626 ft 313 kts 52°
2026-05-03 22:42 26.18880 -79.83837 10287 ft 321 kts 52°
2026-05-03 22:42 26.20244 -79.81749 10505 ft 344 kts 52°
2026-05-03 22:43 26.21681 -79.79550 10958 ft 356 kts 52°
2026-05-03 22:43 26.23157 -79.77289 11551 ft 363 kts 52°
2026-05-03 22:43 26.24651 -79.74997 12201 ft 368 kts 52°
2026-05-03 22:43 26.26168 -79.72665 12849 ft 373 kts 52°
2026-05-03 22:44 26.27694 -79.70315 13505 ft 377 kts 52°
2026-05-03 22:44 26.29252 -79.67982 14305 ft 366 kts 48°
2026-05-03 22:44 26.30934 -79.65969 15138 ft 341 kts 43°
2026-05-03 22:44 26.32541 -79.64115 15442 ft 339 kts 43°
2026-05-03 22:45 26.34227 -79.62184 15521 ft 357 kts 43°
2026-05-03 22:45 26.36008 -79.60149 15660 ft 376 kts 43°
2026-05-03 22:45 26.37867 -79.58020 15936 ft 389 kts 43°
2026-05-03 22:45 26.39768 -79.55835 16434 ft 395 kts 43°
2026-05-03 22:46 26.41690 -79.53620 16973 ft 399 kts 43°
2026-05-03 22:46 26.43630 -79.51379 17523 ft 404 kts 43°
2026-05-03 22:46 26.45597 -79.49105 18082 ft 408 kts 43°
2026-05-03 22:46 26.47579 -79.46819 18589 ft 412 kts 43°
2026-05-03 22:47 26.49582 -79.44511 19047 ft 416 kts 43°
2026-05-03 22:47 26.51603 -79.42179 19036 ft 419 kts 43°
2026-05-03 22:47 26.53629 -79.39838 19033 ft 417 kts 43°
2026-05-03 22:47 26.55801 -79.37694 19285 ft 417 kts 32°
2026-05-03 22:48 26.58232 -79.35947 19818 ft 417 kts 27°
2026-05-03 22:48 26.60718 -79.34256 20329 ft 421 kts 27°
2026-05-03 22:48 26.63237 -79.32538 20813 ft 425 kts 27°
2026-05-03 22:48 26.65741 -79.30827 21282 ft 429 kts 27°
2026-05-03 22:49 26.68302 -79.29078 21759 ft 433 kts 27°
2026-05-03 22:49 26.70885 -79.27318 22219 ft 437 kts 27°
2026-05-03 22:49 26.73487 -79.25545 22686 ft 441 kts 27°
2026-05-03 22:49 26.76117 -79.23753 23151 ft 445 kts 27°
2026-05-03 22:50 26.78775 -79.21943 23612 ft 449 kts 27°
2026-05-03 22:50 26.81458 -79.20117 24005 ft 453 kts 27°
2026-05-03 22:50 26.84159 -79.18274 24406 ft 456 kts 27°
2026-05-03 22:50 26.86879 -79.16413 24805 ft 459 kts 27°
2026-05-03 22:51 26.89605 -79.14546 25184 ft 462 kts 27°
2026-05-03 22:51 26.92360 -79.12660 25554 ft 465 kts 27°
2026-05-03 22:51 26.95144 -79.10754 25945 ft 468 kts 26°
2026-05-03 22:51 26.97934 -79.08846 26315 ft 471 kts 26°
2026-05-03 22:52 27.00745 -79.06919 26685 ft 474 kts 26°
2026-05-03 22:52 27.03563 -79.04987 27046 ft 476 kts 27°
2026-05-03 22:52 27.06394 -79.03042 27440 ft 480 kts 26°
2026-05-03 22:52 27.09223 -79.01102 27695 ft 485 kts 26°
2026-05-03 22:53 27.12115 -78.99116 28011 ft 488 kts 26°
2026-05-03 22:53 27.15020 -78.97119 28340 ft 491 kts 26°
2026-05-03 22:53 27.17945 -78.95112 28695 ft 494 kts 26°
2026-05-03 22:53 27.20880 -78.93097 29040 ft 497 kts 26°
2026-05-03 22:54 27.23839 -78.91063 29384 ft 500 kts 26°
2026-05-03 22:54 27.26816 -78.89013 29724 ft 503 kts 26°
2026-05-03 22:54 27.29807 -78.86949 30066 ft 506 kts 26°
2026-05-03 22:54 27.32817 -78.84867 30369 ft 509 kts 26°
2026-05-03 22:55 27.35838 -78.82781 30689 ft 511 kts 26°
2026-05-03 22:55 27.38994 -78.80943 30978 ft 507 kts 16°
2026-05-03 22:55 27.42299 -78.79652 31252 ft 500 kts
2026-05-03 22:55 27.45689 -78.78917 31528 ft 493 kts 359°
2026-05-03 22:56 27.49099 -78.78434 31903 ft 493 kts 359°
2026-05-03 22:56 27.52492 -78.77946 32314 ft 492 kts 359°
2026-05-03 22:56 27.55892 -78.77449 32721 ft 491 kts 359°
2026-05-03 22:56 27.59247 -78.76954 33123 ft 491 kts 359°
2026-05-03 22:57 27.62627 -78.76456 33562 ft 491 kts 358°
2026-05-03 22:57 27.66015 -78.75959 33942 ft 491 kts 358°
2026-05-03 22:57 27.69407 -78.75462 34309 ft 490 kts 358°
2026-05-03 22:57 27.72793 -78.74964 34647 ft 490 kts 358°
2026-05-03 22:58 27.76171 -78.74468 34991 ft 489 kts 357°
2026-05-03 22:58 27.79543 -78.73969 35347 ft 489 kts 357°
2026-05-03 22:58 27.82931 -78.73470 35668 ft 489 kts 357°
2026-05-03 22:58 27.86301 -78.72976 35976 ft 488 kts 357°
2026-05-03 22:59 27.89666 -78.72483 36264 ft 488 kts 357°
2026-05-03 22:59 27.93036 -78.71987 36587 ft 488 kts 356°
2026-05-03 22:59 27.96411 -78.71490 36839 ft 489 kts 356°
2026-05-03 22:59 27.99779 -78.70992 37024 ft 490 kts 356°
2026-05-03 23:00 28.03158 -78.70492 37063 ft 488 kts 356°
2026-05-03 23:00 28.09880 -78.69495 37071 ft 487 kts 356°
2026-05-03 23:01 28.16593 -78.68500 37067 ft 486 kts 356°
2026-05-03 23:01 28.23260 -78.67509 37058 ft 486 kts 356°
2026-05-03 23:02 28.29974 -78.66518 37074 ft 486 kts 356°
2026-05-03 23:02 28.36687 -78.65527 37077 ft 487 kts 356°
2026-05-03 23:03 28.43414 -78.64526 37086 ft 487 kts 356°
2026-05-03 23:03 28.50135 -78.63519 37122 ft 488 kts 355°
2026-05-03 23:04 28.56876 -78.62511 37107 ft 488 kts 355°
2026-05-03 23:04 28.63614 -78.61499 37101 ft 489 kts 355°
2026-05-03 23:05 28.70361 -78.60502 37100 ft 489 kts 355°
2026-05-03 23:05 28.77117 -78.59494 37144 ft 490 kts 355°
2026-05-03 23:06 28.83875 -78.58476 37091 ft 489 kts 355°
2026-05-03 23:06 28.90591 -78.57469 37093 ft 490 kts 355°
2026-05-03 23:07 28.97352 -78.56461 37097 ft 490 kts 355°
2026-05-03 23:07 29.04126 -78.55444 37108 ft 491 kts 355°
2026-05-03 23:08 29.10902 -78.54421 37094 ft 491 kts 355°
2026-05-03 23:08 29.17668 -78.53407 37093 ft 491 kts 355°
2026-05-03 23:09 29.24452 -78.52388 37096 ft 492 kts 355°
2026-05-03 23:09 29.31254 -78.51353 37101 ft 493 kts 355°
2026-05-03 23:10 29.38053 -78.50328 37139 ft 493 kts 355°
2026-05-03 23:10 29.44858 -78.49300 37132 ft 494 kts 355°
2026-05-03 23:11 29.51621 -78.48266 37121 ft 494 kts 355°
2026-05-03 23:11 29.58446 -78.47236 37111 ft 495 kts 355°
2026-05-03 23:12 29.65289 -78.46207 37135 ft 496 kts 355°
2026-05-03 23:12 29.72146 -78.45177 37135 ft 496 kts 355°
2026-05-03 23:13 29.78996 -78.44151 37132 ft 497 kts 355°
2026-05-03 23:13 29.85855 -78.43126 37132 ft 497 kts 355°
2026-05-03 23:14 29.92724 -78.42103 37124 ft 497 kts 355°
2026-05-03 23:14 29.99584 -78.41085 37116 ft 497 kts 355°
2026-05-03 23:15 30.06401 -78.40076 37120 ft 498 kts 355°
2026-05-03 23:15 30.13283 -78.39059 37127 ft 498 kts 355°
2026-05-03 23:16 30.20171 -78.38043 37130 ft 499 kts 355°
2026-05-03 23:16 30.27058 -78.37028 37139 ft 499 kts 355°
2026-05-03 23:17 30.33947 -78.36014 37143 ft 499 kts 355°
2026-05-03 23:17 30.40848 -78.35000 37142 ft 499 kts 355°
2026-05-03 23:18 30.47710 -78.33978 37150 ft 501 kts 355°
2026-05-03 23:18 30.54527 -78.33477 37148 ft 468 kts 337°
2026-05-03 23:19 30.60933 -78.34657 37142 ft 466 kts 336°
2026-05-03 23:19 30.67338 -78.35849 37147 ft 466 kts 336°
2026-05-03 23:20 30.73712 -78.37039 37174 ft 467 kts 336°
2026-05-03 23:20 30.80119 -78.38234 37133 ft 466 kts 336°
2026-05-03 23:21 30.86518 -78.39428 37133 ft 466 kts 336°
2026-05-03 23:21 30.92936 -78.40628 37139 ft 467 kts 336°
2026-05-03 23:22 31.02690 -78.42103 37178 ft 492 kts 351°
2026-05-03 23:22 31.09591 -78.41068 37167 ft 502 kts 356°
2026-05-03 23:23 31.16521 -78.39919 37164 ft 503 kts 356°
2026-05-03 23:23 31.23416 -78.38767 37162 ft 504 kts 356°
2026-05-03 23:24 31.30364 -78.37616 37167 ft 504 kts 356°
2026-05-03 23:24 31.37315 -78.36484 37163 ft 504 kts 356°
2026-05-03 23:25 31.44266 -78.35338 37167 ft 504 kts 356°
2026-05-03 23:25 31.50049 -78.34378 37168 ft 505 kts 356°
2026-05-03 23:26 31.57005 -78.33230 37153 ft 503 kts 356°
2026-05-03 23:26 31.63921 -78.32084 37146 ft 501 kts 356°
2026-05-03 23:27 31.70826 -78.30938 37154 ft 502 kts 356°
2026-05-03 23:27 31.77758 -78.29786 37165 ft 503 kts 356°
2026-05-03 23:28 31.84697 -78.28631 37195 ft 503 kts 356°
2026-05-03 23:28 31.91594 -78.27473 37189 ft 503 kts 356°
2026-05-03 23:29 31.98528 -78.26319 37183 ft 503 kts 356°
2026-05-03 23:29 32.05460 -78.25186 37180 ft 502 kts 355°
2026-05-03 23:30 32.12365 -78.24171 37148 ft 497 kts 354°
2026-05-03 23:30 32.19229 -78.23214 37145 ft 496 kts 354°
2026-05-03 23:31 32.26090 -78.22240 37161 ft 498 kts 355°
2026-05-03 23:31 32.32973 -78.21228 37167 ft 498 kts 355°
2026-05-03 23:32 32.39858 -78.20210 37196 ft 498 kts 355°
2026-05-03 23:32 32.46694 -78.19191 37187 ft 497 kts 355°
2026-05-03 23:33 32.53562 -78.18184 37187 ft 497 kts 354°
2026-05-03 23:33 32.60440 -78.17175 37226 ft 497 kts 355°
2026-05-03 23:34 32.67257 -78.16165 37151 ft 492 kts 354°
2026-05-03 23:34 32.74058 -78.15174 37153 ft 492 kts 354°
2026-05-03 23:35 32.80859 -78.14170 37159 ft 493 kts 355°
2026-05-03 23:35 32.87623 -78.13155 37164 ft 493 kts 355°
2026-05-03 23:36 32.94431 -78.12138 37164 ft 493 kts 354°
2026-05-03 23:36 33.01249 -78.11134 37163 ft 493 kts 354°